This demonstration page uses our WeatherBlox Daily Observations layout. Learn more.

Left ArrowRight Arrow

Hourly Observations for July 20, 2020

Temp ( °F °C ) Dew Point ( °F °C ) Humidity (%) Winds ( mph kmh ) Pressure ( in mb ) Visibility ( mi km ) Precip ( " mm )
12:53 am 00:53 Partly Cloudy 75 23.9 64 17.8 69 69 SSE 13 20 29.94 1014 10 16 0.00 0.00
1:53 am 01:53 Partly Cloudy 74 23.3 63 17.2 69 69 SE 13 20 29.91 1013 10 16 0.00 0.00
2:26 am 02:26 Cloudy with Nearby Thunderstorms 73 22.8 64 17.8 74 74 SE 9 15 29.87 1011 10 16 0.00 0.00
2:37 am 02:37 Cloudy with Thunderstorms 73 22.8 64 17.8 74 74 S 8 13 29.89 1012 10 16 0.00 0.00
2:53 am 02:53 Cloudy with Thunderstorms 70 21.1 66 18.9 87 87 Calm 29.92 1013 3 5 0.09 2.29
2:57 am 02:57 Cloudy with Strong Thunderstorms 70 21.1 66 18.9 87 87 VRB 3 6 29.91 1013 2 3 0.06 1.52
3:10 am 03:10 Cloudy with Strong Thunderstorms 69 20.6 68 20 96 96 SE 9 15 29.89 1012 3 5 0.15 3.81
3:38 am 03:38 Mostly Clear with Nearby Thunderstorms 69 20.6 68 20 96 96 SE 8 13 29.87 1012 10 16 0.16 4.06
3:53 am 03:53 Partly Cloudy with Light Rain 69 20.6 69 20.6 100 100 SE 8 13 29.88 1012 10 16 0.16 4.06
4:21 am 04:21 Mostly Cloudy with Light Rain 69 20.6 68 20 96 96 NW 9 15 29.97 1015 9 14 0.02 0.51
4:31 am 04:31 Cloudy with Light Rain 70 21.1 68 20 93 93 NW 12 19 29.99 1016 10 16 0.02 0.51
4:39 am 04:39 Cloudy with Light Rain 70 21.1 69 20.6 97 97 N 10 17 29.98 1015 10 16 0.03 0.76
4:53 am 04:53 Cloudy with Light Rain 68 20 67 19.4 96 96 N 15 24 29.99 1016 9 14 0.04 1.02
5:00 am 05:00 Cloudy with Light Rain 68 20 66 18.9 93 93 NNE 14 22 29.98 1015 10 16 0.01 0.25
5:20 am 05:20 Partly Cloudy 66 18.9 64 17.8 93 93 ENE 15 24 29.97 1015 10 16 0.01 0.25
5:53 am 05:53 Partly Cloudy 65 18.3 63 17.2 93 93 E 13 20 29.98 1015 10 16 0.01 0.25
6:53 am 06:53 Sunny 64 17.8 62 16.7 93 93 ESE 6 9 29.96 1014 10 16 0.00 0.00
7:53 am 07:53 Sunny 65 18.3 62 16.7 90 90 E 7 11 29.95 1014 10 16 0.00 0.00
8:22 am 08:22 Mostly Sunny 65 18.3 62 16.7 90 90 E 10 17 29.96 1014 10 16 0.00 0.00
8:44 am 08:44 Mostly Cloudy 66 18.9 63 17.2 90 90 ENE 12 19 29.95 1014 10 16 0.00 0.00
8:53 am 08:53 Mostly Cloudy 66 18.9 63 17.2 90 90 E 10 17 29.96 1015 10 16 0.00 0.00
9:53 am 09:53 Cloudy with Mist and Fog 67 19.4 64 17.8 91 91 SE 8 13 29.94 1014 4 6 0.00 0.00
10:33 am 10:33 Cloudy with Mist and Fog 68 20 65 18.3 90 90 E 5 7 29.96 1014 2 3 0.00 0.00
10:51 am 10:51 Cloudy with Mist and Fog 70 21 64 18 83 83 ENE 7 11 29.95 1014 3 5 0.00 0.00
10:53 am 10:53 Cloudy with Mist and Fog 69 20.6 65 18.3 87 87 ENE 6 9 29.98 1015 3 5 0.00 0.00
11:53 am 11:53 Partly Cloudy with Light Rain 72 22.2 66 18.9 82 82 Calm 29.98 1015 7 11 0.00 0.00
12:53 pm 12:53 Sunny 77 25 67 19.4 71 71 ESE 7 11 29.96 1015 10 16 0.00 0.00
1:39 pm 13:39 Mostly Cloudy 79 26.1 68 20 69 69 SE 8 13 29.90 1013 10 16 0.00 0.00
1:53 pm 13:53 Mostly Cloudy 79 26.1 68 20 69 69 VRB 7 11 29.95 1014 10 16 0.00 0.00
2:26 pm 14:26 Partly Cloudy 79 26.1 67 19.4 67 67 SSE 8 13 29.89 1012 10 16 0.00 0.00
2:53 pm 14:53 Partly Cloudy 82 27.8 67 19.4 60 60 S 7 11 29.94 1014 10 16 0.00 0.00
3:53 pm 15:53 Mostly Cloudy 81 27.2 67 19.4 62 62 SE 6 9 29.93 1014 10 16 0.00 0.00
4:53 pm 16:53 Cloudy 82 27.8 69 20.6 65 65 VRB 7 11 29.91 1013 10 16 0.00 0.00
5:53 pm 17:53 Cloudy 83 28.3 69 20.6 63 63 ESE 7 11 29.90 1013 10 16 0.00 0.00
6:53 pm 18:53 Partly Cloudy 80 26.7 68 20 67 67 ESE 13 20 29.89 1012 10 16 0.00 0.00
7:53 pm 19:53 Mostly Cloudy 79 26.1 68 20 69 69 ESE 10 17 29.91 1013 10 16 0.00 0.00
8:53 pm 20:53 Sunny 76 24.4 69 20.6 79 79 ESE 12 19 29.92 1013 10 16 0.00 0.00
9:53 pm 21:53 Partly Cloudy 75 23.9 68 20 79 79 SE 10 17 29.93 1014 10 16 0.00 0.00
10:53 pm 22:53 Clear 74 23.3 68 20 82 82 SE 7 11 29.94 1014 10 16 0.00 0.00
11:53 pm 23:53 Mostly Cloudy with Light Rain 73 22.8 68 20 84 84 W 12 19 29.96 1015 10 16 0.02 0.51

Powered by AerisWeather